AUI1285 LFPG-EDDN

Flight info

Callsign AUI1285
Flight time N/A
Altitude 27000
Route RANUX UN858 LIMGO DCT BOMBI L984 KOMIB T193 ERTES
Aircraft A339/H-SADE1E2E3GHIJ3J5M1P2RWXY/LB2D1

Departure

Time 2026-05-01 15:25
Airport Charles de Gaulle International Airport (LFPG)

Arrival

Time N/A
Airport Nuremberg Airport (EDDN)
Time Latitude Longitude Altitude Speed Heading
2026-05-01 14:56 49.01727 2.54192 360 ft 0 kts 226°
2026-05-01 15:18 49.01756 2.54236 366 ft 3 kts 225°
2026-05-01 15:18 49.01778 2.54270 360 ft 5 kts 225°
2026-05-01 15:19 49.01810 2.54331 366 ft 0 kts 269°
2026-05-01 15:20 49.01783 2.53624 361 ft 36 kts 265°
2026-05-01 15:20 49.01761 2.53249 360 ft 36 kts 265°
2026-05-01 15:20 49.01746 2.52876 365 ft 35 kts 267°
2026-05-01 15:21 49.01724 2.52512 360 ft 34 kts 265°
2026-05-01 15:21 49.01702 2.52156 366 ft 33 kts 264°
2026-05-01 15:21 49.01773 2.51945 362 ft 23 kts
2026-05-01 15:21 49.01880 2.52011 364 ft 13 kts 64°
2026-05-01 15:22 49.01921 2.52096 364 ft 9 kts 45°
2026-05-01 15:22 49.01991 2.52256 365 ft 5 kts 62°
2026-05-01 15:22 49.02007 2.52307 366 ft 13 kts 65°
2026-05-01 15:23 49.02042 2.52356 365 ft 8 kts 28°
2026-05-01 15:23 49.02121 2.52437 365 ft 17 kts 66°
2026-05-01 15:23 49.02131 2.52506 367 ft 0 kts 78°
2026-05-01 15:24 49.02132 2.52508 368 ft 0 kts 78°
2026-05-01 15:24 49.02133 2.52522 368 ft 14 kts 80°
2026-05-01 15:24 49.02148 2.52845 368 ft 77 kts 87°
2026-05-01 15:24 49.02212 2.54100 362 ft 156 kts 85°
2026-05-01 15:25 49.02324 2.56011 495 ft 201 kts 85°
2026-05-01 15:25 49.02482 2.58217 1077 ft 216 kts 85°
2026-05-01 15:25 49.02643 2.60399 1680 ft 196 kts 87°
2026-05-01 15:25 49.02736 2.62494 1798 ft 204 kts 89°
2026-05-01 15:26 49.02817 2.64773 2021 ft 227 kts 89°
2026-05-01 15:26 49.02916 2.67289 2470 ft 248 kts 88°
2026-05-01 15:26 49.03039 2.69946 3071 ft 255 kts 88°
2026-05-01 15:26 49.03174 2.72639 3810 ft 255 kts 87°
2026-05-01 15:27 49.03469 2.75328 4460 ft 258 kts 78°
2026-05-01 15:27 49.03905 2.77981 5187 ft 259 kts 78°
2026-05-01 15:27 49.04343 2.80660 5853 ft 261 kts 78°
2026-05-01 15:28 49.04381 2.86158 7071 ft 263 kts 98°
2026-05-01 15:28 49.04220 2.88950 7677 ft 266 kts 95°
2026-05-01 15:28 49.04175 2.91833 8109 ft 279 kts 91°
2026-05-01 15:29 49.04448 2.97788 9566 ft 287 kts 85°
2026-05-01 15:29 49.04696 3.00824 10272 ft 291 kts 85°
2026-05-01 15:29 49.05175 3.07305 10845 ft 328 kts 86°
2026-05-01 15:30 49.05685 3.14440 11905 ft 343 kts 86°
2026-05-01 15:31 49.06749 3.29094 14560 ft 353 kts 87°
2026-05-01 15:31 49.07284 3.36602 15716 ft 359 kts 87°
2026-05-01 15:32 49.07821 3.44238 16852 ft 365 kts 88°
2026-05-01 15:32 49.08363 3.52023 17917 ft 373 kts 88°
2026-05-01 15:33 49.09126 3.63929 19197 ft 381 kts 88°
2026-05-01 15:34 49.10006 3.76061 20815 ft 386 kts 87°